Date String (YYYY-MM-DD hh:mm:ss) UTC,Instrument flags,Ambient pressure (hPa),Sample flow (lpm),Bypass flow (lpm),Sample temperature (°C),Ambient temperature (°C),ASC tube jacket temperature (°C),LED temperature (°C),Box temperature (°C),Sample RH (%),Span deviation,Mass concentration (μg/m³),Mass concentration (μg/m³),Mass concentration (μg/m³)
DateTimeUTC,F1_M11,P_M11,Q1_M11,Q2_M11,T1_M11,T2_M11,T3_M11,T4_M11,T5_M11,U1_M11,ZSPAN_M11,X0_M11,X2_M11,X1_M11
2022-07-02 03:00:00,,0826.9,5.00,0.00,29.6,27.5,00.0,38.2,31.4,23.9,0000.0,0010.39,0004.40,0003.58
2022-07-02 03:01:00,,0826.9,5.01,0.00,29.5,27.0,00.0,38.2,31.3,24.0,0000.0,0009.93,0004.36,0003.57
2022-07-02 03:02:00,,0827.1,5.00,0.00,29.4,26.9,00.0,38.2,31.2,24.1,0000.0,0009.96,0004.35,0003.56
2022-07-02 03:03:00,,0827.2,4.99,0.00,29.4,27.0,00.0,38.1,31.1,24.2,0000.0,0009.93,0004.33,0003.56
2022-07-02 03:04:00,,0827.0,5.00,0.00,29.3,27.2,00.0,38.1,31.1,24.2,0000.0,0009.71,0004.27,0003.56
2022-07-02 03:05:00,,0827.0,5.01,0.00,29.3,27.4,00.0,38.1,31.2,24.2,0000.0,0009.58,0004.24,0003.56
2022-07-02 03:06:00,,0827.0,5.01,0.00,29.3,27.6,00.0,38.1,31.2,24.1,0000.0,0010.11,0004.28,0003.57
2022-07-02 03:07:00,,0827.2,4.99,0.00,29.3,27.8,00.0,38.1,31.2,24.1,0000.0,0010.13,0004.31,0003.58
2022-07-02 03:08:00,,0827.4,5.00,0.00,29.3,27.9,00.0,38.1,31.3,23.9,0000.0,0009.52,0004.31,0003.58
2022-07-02 03:09:00,,0827.2,5.00,0.00,29.4,28.1,00.0,38.1,31.3,23.8,0000.0,0009.24,0004.35,0003.58
2022-07-02 03:10:00,,0827.1,4.99,0.00,29.4,28.2,00.0,38.2,31.4,23.8,0000.0,0008.99,0004.34,0003.59
2022-07-02 03:11:00,,0827.2,5.00,0.00,29.4,28.3,00.0,38.2,31.4,23.8,0000.0,0009.58,0004.36,0003.60
2022-07-02 03:12:00,,0827.2,5.00,0.00,29.5,28.4,00.0,38.2,31.5,23.7,0000.0,0009.50,0004.34,0003.60
2022-07-02 03:13:00,,0827.2,4.99,0.00,29.5,28.5,00.0,38.2,31.5,23.6,0000.0,0009.50,0004.38,0003.63
2022-07-02 03:14:00,,0827.2,5.00,0.00,29.5,28.6,00.0,38.2,31.6,23.6,0000.0,0009.44,0004.36,0003.64
2022-07-02 03:15:00,,0827.2,5.00,0.00,29.6,28.7,00.0,38.2,31.6,23.6,0000.0,0009.42,0004.37,0003.65
2022-07-02 03:16:00,,0827.3,4.99,0.00,29.6,28.7,00.0,38.3,31.6,23.7,0000.0,0009.48,0004.39,0003.67
2022-07-02 03:17:00,,0827.3,5.01,0.00,29.6,28.0,00.0,38.2,31.5,23.8,0000.0,0009.19,0004.37,0003.67
2022-07-02 03:18:00,,0827.4,5.00,0.00,29.5,27.2,00.0,38.2,31.3,24.2,0000.0,0009.03,0004.34,0003.67
2022-07-02 03:19:00,,0827.4,5.00,0.00,29.5,26.9,00.0,38.2,31.2,25.0,0000.0,0009.09,0004.37,0003.69
2022-07-02 03:20:00,,0827.4,5.00,0.00,29.4,27.0,00.0,38.2,31.1,26.4,0000.0,0009.37,0004.42,0003.70
2022-07-02 03:21:00,,0827.4,5.00,0.00,29.3,27.1,00.0,38.1,31.1,26.7,0000.0,0010.65,0004.50,0003.70
2022-07-02 03:22:00,,0827.4,4.99,0.00,29.3,27.3,00.0,38.1,31.1,26.8,0000.0,0010.58,0004.50,0003.69
2022-07-02 03:23:00,,0827.4,5.00,0.00,29.3,27.4,00.0,38.1,31.2,26.9,0000.0,0010.97,0004.62,0003.69
2022-07-02 03:24:00,,0827.4,4.99,0.00,29.3,27.6,00.0,38.1,31.2,26.5,0000.0,0012.08,0004.67,0003.68
2022-07-02 03:25:00,,0827.3,5.02,0.00,29.3,27.8,00.0,38.1,31.2,26.1,0000.0,0013.11,0004.69,0003.66
2022-07-02 03:26:00,,0827.2,5.00,0.00,29.3,27.9,00.0,38.1,31.3,25.8,0000.0,0014.05,0004.71,0003.62
2022-07-02 03:27:00,,0827.3,4.98,0.00,29.4,28.1,00.0,38.1,31.3,25.8,0000.0,0015.41,0004.80,0003.60
2022-07-02 03:28:00,,0827.3,5.01,0.00,29.4,28.2,00.0,38.1,31.4,25.8,0000.0,0015.90,0004.84,0003.57
2022-07-02 03:29:00,,0827.3,5.00,0.00,29.4,28.3,00.0,38.1,31.4,25.7,0000.0,0016.30,0004.86,0003.54
2022-07-02 03:30:00,,0827.3,5.01,0.00,29.4,28.4,00.0,38.2,31.4,25.7,0000.0,0017.12,0004.87,0003.50
2022-07-02 03:31:00,,0827.3,5.00,0.00,29.5,28.5,00.0,38.2,31.5,25.8,0000.0,0018.38,0004.82,0003.46
2022-07-02 03:32:00,,0827.3,5.00,0.00,29.5,28.5,00.0,38.2,31.5,25.8,0000.0,0018.90,0004.81,0003.42
2022-07-02 03:33:00,,0827.3,4.99,0.00,29.5,28.6,00.0,38.2,31.6,25.8,0000.0,0019.29,0004.78,0003.39
2022-07-02 03:34:00,,0827.4,5.00,0.00,29.6,28.7,00.0,38.3,31.6,25.9,0000.0,0019.88,0004.72,0003.34
2022-07-02 03:35:00,,0827.4,5.00,0.00,29.6,28.7,00.0,38.3,31.6,25.9,0000.0,0019.25,0004.69,0003.31
2022-07-02 03:36:00,,0827.5,5.00,0.00,29.6,28.8,00.0,38.3,31.7,25.8,0000.0,0018.61,0004.67,0003.29
2022-07-02 03:37:00,,0827.5,5.00,0.00,29.7,28.8,00.0,38.3,31.7,25.8,0000.0,0017.67,0004.64,0003.28
2022-07-02 03:38:00,,0827.5,5.00,0.00,29.7,28.9,00.0,38.4,31.7,25.8,0000.0,0016.37,0004.55,0003.26
2022-07-02 03:39:00,,0827.5,5.00,0.00,29.7,28.9,00.0,38.4,31.7,25.9,0000.0,0015.79,0004.49,0003.24
2022-07-02 03:40:00,,0827.7,5.00,0.00,29.8,28.9,00.0,38.4,31.8,26.0,0000.0,0015.21,0004.47,0003.24
2022-07-02 03:41:00,,0827.7,5.00,0.00,29.8,29.0,00.0,38.4,31.8,26.1,0000.0,0014.48,0004.41,0003.23
2022-07-02 03:42:00,,0827.7,5.00,0.00,29.8,29.0,00.0,38.5,31.9,26.2,0000.0,0013.26,0004.32,0003.21
2022-07-02 03:43:00,,0827.7,5.00,0.00,29.9,29.1,00.0,38.5,31.9,26.3,0000.0,0012.06,0004.22,0003.19
2022-07-02 03:44:00,,0827.7,5.01,0.00,29.9,29.1,00.0,38.5,31.9,26.5,0000.0,0011.95,0004.21,0003.18
2022-07-02 03:45:00,,0827.8,4.99,0.00,29.9,29.1,00.0,38.5,31.9,26.6,0000.0,0011.67,0004.17,0003.18
2022-07-02 03:46:00,,0827.8,5.01,0.00,30.0,29.0,00.0,38.6,31.9,26.6,0000.0,0011.26,0004.15,0003.17
2022-07-02 03:47:00,,0827.9,5.00,0.00,29.9,28.2,00.0,38.5,31.8,26.7,0000.0,0011.25,0004.18,0003.16
2022-07-02 03:48:00,,0827.9,5.01,0.00,29.9,27.7,00.0,38.5,31.7,26.8,0000.0,0011.60,0004.17,0003.14
2022-07-02 03:49:00,,0827.8,4.99,0.00,29.8,27.6,00.0,38.5,31.6,26.9,0000.0,0011.54,0004.15,0003.14
2022-07-02 03:50:00,,0827.9,5.00,0.00,29.7,27.7,00.0,38.5,31.5,27.1,0000.0,0011.52,0004.14,0003.14
2022-07-02 03:51:00,,0828.0,5.00,0.00,29.7,27.8,00.0,38.5,31.5,27.2,0000.0,0011.45,0004.14,0003.14
2022-07-02 03:52:00,,0828.0,5.00,0.00,29.7,27.9,00.0,38.5,31.6,27.3,0000.0,0011.55,0004.17,0003.14
2022-07-02 03:53:00,,0828.0,5.00,0.00,29.7,28.1,00.0,38.5,31.6,27.4,0000.0,0012.07,0004.22,0003.15
2022-07-02 03:54:00,,0828.0,5.00,0.00,29.7,28.2,00.0,38.5,31.6,27.6,0000.0,0011.56,0004.25,0003.16
2022-07-02 03:55:00,,0828.0,5.00,0.00,29.7,28.3,00.0,38.5,31.7,27.7,0000.0,0010.87,0004.24,0003.17
2022-07-02 03:56:00,,0828.1,5.00,0.00,29.7,28.5,00.0,38.5,31.7,27.7,0000.0,0010.10,0004.20,0003.17
2022-07-02 03:57:00,,0828.1,4.99,0.00,29.7,28.6,00.0,38.5,31.7,27.6,0000.0,0010.18,0004.17,0003.18
2022-07-02 03:58:00,,0828.1,4.99,0.00,29.8,28.6,00.0,38.5,31.7,27.6,0000.0,0010.36,0004.13,0003.19
2022-07-02 03:59:00,,0828.1,5.01,0.00,29.8,28.7,00.0,38.5,31.7,27.5,0000.0,0010.03,0004.12,0003.20
